When you browse on this site, cookies collect data to enhance your experience and personalize the content and advertising you see.
Visit our Privacy Policy to learn more. By continuing to use the site, you agree to this use of cookies and data.
  • In Portugal
  • List of Countries
  • For 7 days
  • Water Temperature
  • Satellite Maps
  • Weather Map
  • Weather Widgets
  • user-avatar
    Login

    Hourly Weather Warzymowo

    Today, 19 June, Wednesday

    Time Temperature Precipitation Wind Pressure Humidity
    00:00 +18°C° 0 mm 3 mps 755 mmHg 85%
    01:00 +18°C° 0 mm 3 mps 755 mmHg 87%
    02:00 +17°C° 0 mm 3 mps 754 mmHg 88%
    03:00 +17°C° 0 mm 3 mps 754 mmHg 89%
    04:00 +17°C° 0 mm 3 mps 754 mmHg 90%
    05:00 +18°C° 0 mm 3 mps 754 mmHg 86%
    06:00 +20°C° 0 mm 3 mps 754 mmHg 83%
    07:00 +22°C° 0 mm 3 mps 754 mmHg 78%
    08:00 +24°C° 0 mm 3 mps 753 mmHg 73%
    09:00 +26°C° 0 mm 3 mps 753 mmHg 68%
    10:00 +27°C° 0 mm 3 mps 752 mmHg 63%
    11:00 +28°C° 0 mm 2 mps 752 mmHg 59%
    12:00 +28°C° 0 mm 2 mps 752 mmHg 56%
    13:00 +29°C° 0 mm 2 mps 752 mmHg 52%
    14:00 +29°C° 0 mm 2 mps 751 mmHg 53%
    15:00 +29°C° 0 mm 1 mps 751 mmHg 54%
    16:00 +29°C° 0 mm 1 mps 750 mmHg 55%
    17:00 +28°C° 0 mm 1 mps 750 mmHg 59%
    18:00 +27°C° 0 mm 1 mps 750 mmHg 63%
    19:00 +26°C° 0 mm 1 mps 750 mmHg 67%
    20:00 +25°C° 0 mm 1 mps 750 mmHg 71%
    21:00 +23°C° 0 mm 1 mps 750 mmHg 76%
    22:00 +21°C° 0 mm 2 mps 750 mmHg 81%
    23:00 +21°C° 0 mm 2 mps 750 mmHg 81%

    Tomorrow, 20 June, Thursday

    Time Temperature Precipitation Wind Pressure Humidity
    00:00 +21°C° 0 mm 1 mps 750 mmHg 81%
    01:00 +21°C° 0 mm 1 mps 750 mmHg 82%
    02:00 +21°C° 0 mm 1 mps 750 mmHg 81%
    03:00 +21°C° 0 mm 1 mps 750 mmHg 80%
    04:00 +21°C° 0 mm 1 mps 750 mmHg 79%
    05:00 +21°C° 0 mm 2 mps 750 mmHg 76%
    06:00 +24°C° 0 mm 2 mps 750 mmHg 74%
    07:00 +25°C° 0 mm 2 mps 750 mmHg 71%
    08:00 +26°C° 0 mm 2 mps 750 mmHg 67%
    09:00 +28°C° 0 mm 2 mps 750 mmHg 62%
    10:00 +29°C° 0 mm 2 mps 750 mmHg 58%
    11:00 +30°C° 0 mm 2 mps 750 mmHg 54%
    12:00 +30°C° 0 mm 2 mps 750 mmHg 50%
    13:00 +31°C° 0 mm 2 mps 750 mmHg 46%
    14:00 +31°C° 0 mm 2 mps 750 mmHg 47%
    15:00 +31°C° 0 mm 2 mps 750 mmHg 48%
    16:00 +31°C° 0 mm 2 mps 749 mmHg 49%
    17:00 +30°C° 0.1 mm 3 mps 750 mmHg 56%
    18:00 +28°C° 0.1 mm 3 mps 750 mmHg 62%
    19:00 +26°C° 0.1 mm 3 mps 750 mmHg 69%
    20:00 +24°C° 1 mm 3 mps 750 mmHg 74%
    21:00 +21°C° 1 mm 2 mps 751 mmHg 79%
    22:00 +20°C° 1 mm 1 mps 751 mmHg 84%
    23:00 +19°C° 0.1 mm 2 mps 751 mmHg 85%

    Day after tomorrow, 21 June, Friday

    Time Temperature Precipitation Wind Pressure Humidity
    00:00 +19°C° 0.1 mm 2 mps 751 mmHg 86%
    01:00 +18°C° 0.1 mm 3 mps 752 mmHg 87%
    02:00 +18°C° 0.1 mm 2 mps 752 mmHg 88%
    03:00 +18°C° 0.1 mm 2 mps 752 mmHg 89%
    04:00 +19°C° 0.1 mm 1 mps 752 mmHg 89%
    05:00 +19°C° 0 mm 2 mps 752 mmHg 88%
    06:00 +20°C° 0 mm 2 mps 753 mmHg 86%
    07:00 +23°C° 0 mm 2 mps 753 mmHg 84%
    08:00 +23°C° 0.7 mm 2 mps 753 mmHg 84%
    09:00 +22°C° 0.7 mm 3 mps 754 mmHg 83%
    10:00 +22°C° 0.7 mm 3 mps 754 mmHg 83%
    11:00 +22°C° 0.1 mm 3 mps 754 mmHg 80%
    12:00 +24°C° 0.1 mm 3 mps 754 mmHg 77%
    13:00 +24°C° 0.1 mm 3 mps 754 mmHg 74%
    14:00 +25°C° 0.1 mm 2 mps 754 mmHg 71%
    15:00 +26°C° 0.1 mm 2 mps 754 mmHg 67%
    16:00 +26°C° 0.1 mm 2 mps 754 mmHg 64%
    17:00 +25°C° 0.2 mm 2 mps 754 mmHg 70%
    18:00 +24°C° 0.2 mm 2 mps 754 mmHg 76%
    19:00 +23°C° 0.2 mm 2 mps 754 mmHg 82%
    20:00 +21°C° 0 mm 2 mps 755 mmHg 85%
    21:00 +20°C° 0 mm 2 mps 755 mmHg 88%
    22:00 +19°C° 0 mm 2 mps 756 mmHg 92%
    23:00 +18°C° 0 mm 3 mps 756 mmHg 92%

    22 June, Saturday

    Time Temperature Precipitation Wind Pressure Humidity
    00:00 +17°C° 0 mm 3 mps 756 mmHg 91%
    01:00 +15°C° 0 mm 4 mps 757 mmHg 91%
    02:00 +16°C° 0 mm 3 mps 757 mmHg 91%
    03:00 +14°C° 0 mm 3 mps 757 mmHg 92%
    04:00 +14°C° 0 mm 3 mps 757 mmHg 92%
    05:00 +16°C° 0 mm 3 mps 758 mmHg 88%
    06:00 +17°C° 0 mm 3 mps 758 mmHg 84%
    07:00 +18°C° 0 mm 4 mps 758 mmHg 80%
    08:00 +19°C° 0 mm 4 mps 759 mmHg 74%
    09:00 +20°C° 0 mm 4 mps 759 mmHg 68%
    10:00 +22°C° 0 mm 4 mps 759 mmHg 62%
    11:00 +22°C° 0 mm 4 mps 759 mmHg 61%
    12:00 +23°C° 0 mm 4 mps 758 mmHg 59%
    13:00 +23°C° 0 mm 5 mps 758 mmHg 58%
    14:00 +23°C° 0 mm 5 mps 758 mmHg 61%
    15:00 +23°C° 0 mm 5 mps 758 mmHg 63%
    16:00 +23°C° 0 mm 6 mps 758 mmHg 65%
    17:00 +22°C° 0 mm 6 mps 758 mmHg 69%
    18:00 +21°C° 0 mm 6 mps 758 mmHg 73%
    19:00 +19°C° 0 mm 6 mps 758 mmHg 77%
    20:00 +17°C° 0 mm 5 mps 758 mmHg 77%
    21:00 +16°C° 0 mm 5 mps 758 mmHg 77%
    22:00 +14°C° 0 mm 5 mps 759 mmHg 76%
    23:00 +14°C° 0 mm 5 mps 759 mmHg 78%

    23 June, Sunday

    Time Temperature Precipitation Wind Pressure Humidity
    00:00 +13°C° 0 mm 5 mps 759 mmHg 80%
    01:00 +13°C° 0 mm 5 mps 759 mmHg 82%
    02:00 +15°C° 0 mm 5 mps 756 mmHg 72%
    03:00 +15°C° 0 mm 5 mps 755 mmHg 74%
    04:00 +14°C° 0 mm 5 mps 755 mmHg 75%
    05:00 +14°C° 0.3 mm 5 mps 755 mmHg 78%
    06:00 +14°C° 0.3 mm 5 mps 755 mmHg 82%
    07:00 +14°C° 0.3 mm 5 mps 755 mmHg 85%
    08:00 +15°C° 0.8 mm 5 mps 755 mmHg 86%
    09:00 +15°C° 0.8 mm 5 mps 755 mmHg 86%
    10:00 +15°C° 0.8 mm 5 mps 755 mmHg 87%
    11:00 +15°C° 3.3 mm 6 mps 755 mmHg 88%
    12:00 +15°C° 3.3 mm 6 mps 755 mmHg 90%
    13:00 +15°C° 3.3 mm 6 mps 755 mmHg 91%
    14:00 +15°C° 2.2 mm 6 mps 756 mmHg 91%
    15:00 +15°C° 2.2 mm 6 mps 756 mmHg 90%
    16:00 +15°C° 2.2 mm 6 mps 756 mmHg 90%
    17:00 +15°C° 0.9 mm 5 mps 756 mmHg 90%
    18:00 +14°C° 0.9 mm 4 mps 756 mmHg 90%
    19:00 +14°C° 0.9 mm 3 mps 757 mmHg 90%
    20:00 +14°C° 0.1 mm 3 mps 757 mmHg 87%
    21:00 +14°C° 0.1 mm 3 mps 757 mmHg 85%
    22:00 +13°C° 0.1 mm 3 mps 758 mmHg 83%
    23:00 +12°C° 0 mm 3 mps 758 mmHg 84%

    24 June, Monday

    Time Temperature Precipitation Wind Pressure Humidity
    00:00 +12°C° 0 mm 3 mps 758 mmHg 85%
    01:00 +11°C° 0 mm 3 mps 758 mmHg 86%
    02:00 +11°C° 0 mm 3 mps 759 mmHg 86%
    03:00 +10°C° 0 mm 3 mps 759 mmHg 87%
    04:00 +10°C° 0 mm 3 mps 759 mmHg 87%
    05:00 +12°C° 0 mm 3 mps 760 mmHg 83%
    06:00 +13°C° 0 mm 4 mps 760 mmHg 78%
    07:00 +15°C° 0 mm 4 mps 760 mmHg 74%
    08:00 +18°C° 0 mm 3 mps 760 mmHg 68%
    09:00 +19°C° 0 mm 3 mps 761 mmHg 61%
    10:00 +21°C° 0 mm 3 mps 761 mmHg 55%
    11:00 +21°C° 0 mm 3 mps 761 mmHg 53%
    12:00 +22°C° 0 mm 3 mps 761 mmHg 50%
    13:00 +24°C° 0 mm 3 mps 761 mmHg 47%
    14:00 +24°C° 0 mm 3 mps 761 mmHg 49%
    15:00 +24°C° 0 mm 3 mps 761 mmHg 50%
    16:00 +24°C° 0 mm 3 mps 761 mmHg 52%
    17:00 +22°C° 0 mm 3 mps 761 mmHg 58%
    18:00 +21°C° 0 mm 2 mps 761 mmHg 65%
    19:00 +20°C° 0 mm 2 mps 761 mmHg 71%
    20:00 +18°C° 0 mm 2 mps 762 mmHg 72%
    21:00 +17°C° 0 mm 2 mps 762 mmHg 74%
    22:00 +15°C° 0 mm 2 mps 762 mmHg 76%
    23:00 +14°C° 0 mm 2 mps 763 mmHg 77%
    Show more